Weather History for KDYS - March, 2013

Change the Weather History Date:

Saturday, March 16, 2013

  Actual Average Record
Temperature  
Mean Temperature 76 °F -  
Max Temperature 91 °F 65 °F 91 °F (2013)
Min Temperature 59 °F 43 °F 30 °F (2001)
Cooling Degree Days 10    
Growing Degree Days 26 (Base 50)    
Moisture  
Dew Point 42 °F    
Average Humidity 35    
Maximum Humidity 63    
Minimum Humidity 12    
Precipitation  
Precipitation 0.00 in - - ()
Sea Level Pressure  
Sea Level Pressure 29.63 in    
Wind  
Wind Speed 20 mph (South)    
Max Wind Speed 28 mph    
Max Gust Speed 39 mph    
Visibility 10 miles    
Events      
Averages and records for this station are not official NWS values.
T = Trace of Precipitation, MM = Missing Value Source: NWS Daily Summary

Daily Weather History Graph

Daily Weather History Graph

Search for Another Location

Airport or City:

Trip Planner

Search our weather history database for the weather conditions in past years. The results will help you decide how hot, cold, wet, or windy it might be!

Date:

Astronomy

Mar. 16, 2013 Rise Set
Actual Time 7:47 AM CDT 7:48 PM CDT
Civil Twilight 7:23 AM CDT 8:12 PM CDT
Nautical Twilight 6:55 AM CDT 8:41 PM CDT
Astronomical Twilight 6:26 AM CDT 9:10 PM CDT
Moon 10:35 AM CDT (3/16) No Moon Set
Length of Visible Light 12h 49m
Length of Day
12h 00m
Waxing Crescent, 23% of the Moon is Illuminated
Mar 16
Waxing Crescent
Mar 19
First Quarter
Mar 27
Full
Apr 2
Last Quarter
Apr 10
New

Hourly Weather History & Observations

Time (CDT) Temp. Dew Point Humidity Pressure Visibility Wind Dir Wind Speed Gust Speed Precip Events Conditions
12:58 AM 67.6 °F 42.8 °F 41% 29.71 in 10.0 mi South 26.5 mph 39.1 mph N/A   Clear
1:58 AM 66.4 °F 41.5 °F 40% 29.70 in 10.0 mi South 27.6 mph 34.5 mph N/A   Clear
2:58 AM 66.0 °F 39.9 °F 38% 29.68 in 10.0 mi South 23.0 mph 33.4 mph N/A   Clear
3:58 AM 66.2 °F 38.8 °F 37% 29.66 in 10.0 mi South 23.0 mph 32.2 mph N/A   Clear
4:58 AM 65.3 °F 39.7 °F 39% 29.63 in 10.0 mi South 26.5 mph 33.4 mph N/A   Clear
5:58 AM 63.7 °F 40.1 °F 42% 29.64 in 10.0 mi South 21.9 mph 29.9 mph N/A   Clear
6:58 AM 61.9 °F 42.6 °F 49% 29.65 in 10.0 mi South 25.3 mph 31.1 mph N/A   Clear
7:58 AM 61.0 °F 45.3 °F 56% 29.66 in 10.0 mi South 23.0 mph 28.8 mph N/A   Clear
8:58 AM 62.8 °F 46.6 °F 55% 29.67 in 10.0 mi South 21.9 mph 31.1 mph N/A   Clear
9:58 AM 66.0 °F 47.1 °F 50% 29.67 in 10.0 mi South 21.9 mph 29.9 mph N/A   Clear
10:58 AM 70.9 °F 46.9 °F 42% 29.68 in 10.0 mi SSW 19.6 mph - N/A   Clear
11:58 AM 75.7 °F 45.7 °F 34% 29.66 in 10.0 mi South 16.1 mph - N/A   Clear
12:58 PM 80.2 °F 44.4 °F 28% 29.63 in 10.0 mi South 17.3 mph - N/A   Clear
1:58 PM 83.7 °F 43.3 °F 24% 29.60 in 10.0 mi SSW 15.0 mph 23.0 mph N/A   Partly Cloudy
2:47 PM 87.8 °F 42.8 °F 21% 29.70 in 10.0 mi SSW 15.0 mph - N/A   Partly Cloudy
2:58 PM 87.1 °F 40.5 °F 19% 29.57 in 10.0 mi South 11.5 mph 19.6 mph N/A   Clear
3:14 PM 87.8 °F 39.2 °F 18% 29.69 in 10.0 mi SW 12.7 mph - N/A   Clear
3:58 PM 88.9 °F 39.4 °F 18% 29.54 in 10.0 mi South 10.4 mph 17.3 mph N/A   Partly Cloudy
4:58 PM 89.6 °F 36.9 °F 16% 29.51 in 10.0 mi SSW 5.8 mph - N/A   Clear
5:58 PM 90.9 °F 34.2 °F 13% 29.49 in 10.0 mi South 12.7 mph - N/A   Partly Cloudy
6:58 PM 90.3 °F 31.8 °F 12% 29.49 in 10.0 mi South 17.3 mph - N/A   Clear
7:58 PM 79.5 °F 32.2 °F 18% 29.52 in 10.0 mi SSE 5.8 mph - N/A   Clear
8:58 PM 73.9 °F 40.3 °F 30% 29.59 in 10.0 mi North 16.1 mph - N/A   Clear
9:58 PM 70.0 °F 44.4 °F 40% 29.64 in 10.0 mi NNE 17.3 mph - N/A   Clear
10:58 PM 64.8 °F 48.2 °F 55% 29.66 in 10.0 mi North 8.1 mph - N/A   Clear
11:58 PM 59.5 °F 46.8 °F 63% 29.67 in 10.0 mi NNW 6.9 mph - N/A   Clear